Wind_Speed
41 42 43 44 44 45 46 47 48 49 49 50 50 51 52 54 56 59 62 65 68 71 74 77 79 81 83 84 85 85 85 85 85 85 85 85 85 84 84 85 85 85
41 42 43 43 44 45 46 46 46 47 47 47 48 48 49 50 51 53 55 57 60 63 66 70 74 77 79 81 83 84 85 85 85 86 86 86 85 85 85 85 85 85
37 38 40 41 42 43 44 44 43 44 44 45 45 45 46 48 49 50 51 52 54 56 59 62 66 69 73 75 78 80 81 82 83 84 85 85 85 85 85 85 85 85
31 32 33 34 36 37 39 39 39 40 41 42 42 41 42 42 44 45 47 48 49 51 53 56 58 62 64 67 70 73 74 76 77 79 80 80 81 81 82 82 82 83
28 29 29 30 31 32 34 34 34 35 37 38 37 37 37 38 38 40 41 43 45 47 49 51 53 55 57 59 61 63 65 67 68 70 71 72 73 74 74 75 76 77
28 29 29 30 30 30 31 31 30 30 32 34 33 33 34 34 35 36 37 39 40 42 44 46 47 49 51 52 53 55 56 57 59 60 61 62 63 64 65 66 66 67
27 28 29 30 30 30 30 30 28 26 28 30 30 30 31 31 32 33 33 35 35 36 37 39 40 42 43 44 45 47 48 49 50 51 52 54 54 55 55 56 57 57
27 28 29 30 30 30 30 29 28 25 25 26 27 27 27 27 28 28 29 29 29 29 29 31 32 33 34 35 37 39 41 42 44 45 45 46 46 46 47 47 48 49
26 27 28 29 29 29 29 29 27 24 22 22 23 24 24 23 24 24 25 24 23 22 22 23 24 25 25 26 28 31 34 36 37 38 38 39 39 39 40 41 42 44
26 26 27 28 28 28 28 28 27 24 21 20 20 21 21 20 20 21 21 20 18 17 17 17 18 18 19 20 23 25 27 29 30 31 32 32 33 35 36 37 39 40
26 26 26 27 27 27 27 26 25 24 21 19 19 19 19 18 18 17 17 16 15 14 14 14 14 15 16 17 19 21 23 24 25 27 28 30 31 33 34 35 36 36
26 25 25 26 26 26 26 25 23 22 21 19 18 18 17 16 16 15 13 13 12 12 12 12 13 14 15 16 18 19 21 22 24 26 28 29 30 31 31 32 32 32
26 25 24 25 25 25 25 23 22 21 20 19 19 18 16 15 15 14 11 10 10 10 10 11 12 14 15 16 18 19 21 22 24 25 26 27 27 27 28 28 28 28
27 25 23 23 24 24 23 21 20 19 18 19 19 18 17 15 14 13 11 9 8 8 9 11 12 13 15 16 18 19 20 21 23 23 23 24 24 24 24 24 25 25
27 25 23 22 22 22 21 19 17 16 16 17 18 18 17 15 14 13 12 9 8 7 8 9 11 12 14 15 16 17 18 19 19 19 20 20 20 21 21 22 23 23
27 25 22 21 21 21 20 18 16 14 14 16 17 18 17 16 14 14 13 11 9 8 8 9 10 11 11 12 13 14 14 15 15 16 17 18 19 20 21 22 23 24
27 25 23 20 19 19 18 16 14 13 13 14 15 17 17 16 15 14 14 13 11 10 10 11 11 11 11 12 12 12 13 14 15 16 17 18 20 21 22 23 25 25
27 26 23 21 19 18 17 16 14 13 13 14 14 16 16 16 16 15 15 14 13 13 13 13 13 13 13 13 14 14 15 16 17 18 19 20 21 22 23 23 23 24
27 26 24 21 19 18 17 16 14 13 13 13 14 15 15 16 16 16 15 15 14 15 15 15 14 14 14 15 15 16 16 16 17 18 18 19 19 19 18 18 17 17
26 26 25 22 20 18 17 16 15 14 13 13 13 13 14 14 15 15 15 14 14 14 15 15 15 14 14 14 15 15 15 15 15 15 14 14 13 13 12 12 12 12
24 26 25 23 21 19 17 16 15 14 13 12 12 12 12 12 12 12 12 12 12 12 12 12 12 12 12 12 12 12 11 10 10 9 9 9 9 9 9 9 10 10
22 24 25 24 23 21 18 17 15 15 14 12 12 11 11 10 10 9 9 9 8 8 9 9 9 10 9 9 8 7 7 6 6 6 6 6 6 6 7 7 8 9
21 22 24 24 24 22 20 18 16 14 13 12 11 11 10 9 9 8 7 7 6 6 7 7 7 6 5 5 4 4 5 4 4 4 3 4 5 6 7 8 9 10
20 20 22 23 23 23 21 19 17 15 13 12 11 10 9 9 7 6 5 4 4 4 4 3 3 3 3 3 3 3 2 1 1 3 4 5 6 7 8 9 10 11
19 19 20 21 22 22 21 20 19 17 15 13 11 10 8 7 6 4 3 2 1 1 1 2 2 2 2 2 1 1 2 3 4 5 6 7 7 8 9 10 10 11
19 19 19 19 20 21 21 20 20 19 17 15 13 11 9 7 5 4 2 2 2 2 1 1 1 1 1 2 2 3 4 5 5 6 7 7 8 8 9 10 11 12
Wind_Direction
270 270 270 271 271 271 271 271 271 271 271 270 269 268 266 264 262 260 259 258 258 257 257 257 257 257 257 257 257 258 258 258 258 258 258 258 258 258 258 259 259 260
271 271 270 270 270 270 270 270 270 271 271 270 270 269 268 267 265 263 262 260 259 258 257 257 256 256 256 256 256 256 257 257 257 258 258 258 258 258 258 258 259 259
274 273 272 271 270 269 269 269 270 270 270 270 269 269 268 267 266 265 264 262 261 260 259 258 257 256 256 256 256 256 256 257 257 258 258 258 259 259 259 259 259 259
280 278 277 275 273 272 272 271 270 270 271 270 270 269 268 267 267 266 265 264 263 261 260 259 258 257 257 257 257 257 257 257 258 258 258 259 259 260 260 260 260 260
286 285 284 283 281 279 277 276 274 273 272 272 273 273 272 271 270 269 267 266 264 263 261 260 259 258 257 257 257 257 257 258 258 259 259 259 260 260 260 261 261 261
290 290 289 288 286 285 283 282 280 277 275 275 276 276 276 275 274 272 270 268 266 264 262 261 259 258 258 257 258 258 258 258 258 258 259 259 259 260 260 261 261 262
294 293 292 290 289 288 287 286 286 282 277 277 278 277 276 276 276 275 273 270 268 265 262 261 259 258 257 257 257 257 257 257 257 257 257 258 258 259 260 261 261 262
298 297 295 293 292 290 289 289 289 286 280 278 278 277 276 276 277 276 273 269 267 265 263 261 259 257 256 255 255 255 255 255 255 255 256 257 258 259 259 260 260 260
304 301 299 296 294 293 291 290 290 289 284 279 278 277 276 278 279 277 272 268 266 265 264 262 260 257 255 254 253 253 253 253 254 254 255 256 257 257 257 258 258 259
310 305 302 300 298 295 292 291 290 289 286 282 279 279 278 279 281 277 271 267 266 265 265 265 262 258 254 253 253 252 252 252 253 254 254 255 255 255 256 257 258 260
317 309 305 303 300 297 293 292 290 289 287 284 281 281 281 281 282 278 270 266 265 265 267 267 265 260 255 252 251 250 249 249 249 250 250 251 252 254 256 258 260 263
322 314 309 306 302 298 295 292 290 287 286 285 284 283 283 282 283 281 274 266 263 263 265 264 262 258 253 249 246 245 244 244 245 246 248 250 253 255 258 261 264 266
327 319 313 308 305 301 297 295 291 288 286 286 285 285 285 284 283 282 280 272 264 260 258 258 256 252 248 245 243 242 242 243 245 248 250 254 257 260 263 265 266 267
332 324 317 312 308 304 300 298 294 290 287 286 286 286 285 284 282 281 282 280 274 264 256 253 251 248 246 244 244 245 246 248 251 254 257 260 262 264 266 267 268 269
335 329 322 316 312 307 303 301 297 293 290 286 285 286 285 284 280 278 278 279 280 275 266 259 254 252 251 250 250 252 254 256 259 261 263 265 266 268 270 272 274 277
339 334 328 322 318 312 306 303 300 296 293 288 285 285 285 284 280 276 273 272 272 271 268 265 262 261 260 260 260 262 263 265 266 268 269 271 273 276 278 281 283 285
344 339 334 328 324 319 312 307 303 298 294 289 286 284 284 283 280 276 272 269 267 267 266 267 268 268 269 270 271 272 273 273 275 276 278 280 281 283 284 285 285 285
349 345 341 336 331 327 321 314 307 301 296 291 287 284 283 283 282 278 274 270 268 267 268 270 273 274 276 278 279 279 279 280 281 281 282 282 283 283 283 284 284 284
354 351 347 343 339 336 332 326 317 309 302 296 292 288 286 285 283 281 278 273 269 268 270 272 276 278 280 280 280 280 280 280 280 280 280 281 282 283 285 286 288 290
356 355 352 349 346 343 341 337 328 319 312 305 300 296 292 288 286 283 281 278 274 272 273 275 277 277 277 276 276 277 277 277 277 278 280 283 285 288 292 296 300 304
357 358 357 355 353 351 349 346 339 331 323 315 308 304 299 294 290 285 281 279 276 275 274 273 272 271 270 271 272 273 274 276 280 283 286 289 294 301 307 313 318 322
355 359 0 0 360 359 357 353 348 341 334 325 317 310 305 299 292 285 280 276 273 272 270 269 268 268 268 269 271 274 279 284 288 290 294 303 315 327 335 341 343 344
351 357 0 3 5 5 4 1 356 350 343 336 327 318 310 302 294 286 280 278 276 275 274 272 270 268 266 269 274 279 283 287 292 304 325 347 1 6 7 6 5 5
345 352 357 2 6 8 9 8 5 1 354 347 339 330 321 311 302 294 291 291 291 286 282 275 269 266 267 270 271 269 272 299 3 22 27 28 25 22 19 15 13 11
338 345 352 358 3 7 11 13 14 12 8 1 352 342 330 321 316 314 319 332 333 320 305 285 277 270 260 248 225 163 78 60 47 39 35 31 26 20 17 13 10 8
330 337 344 350 356 2 7 13 16 19 18 14 7 358 347 340 337 341 359 21 31 22 352 303 259 216 177 143 109 81 64 53 43 35 29 23 17 12 7 4 2 1
Height
10586 10585 10584 10584 10583 10581 10580 10579 10578 10577 10576 10576 10575 10575 10575 10574 10574 10574 10574 10574 10575 10575 10576 10576 10577 10577 10577 10578 10579 10580 10582 10583 10585 10586 10588 10590 10591 10593 10594 10595 10595 10596
10581 10580 10578 10578 10577 10575 10574 10573 10572 10571 10570 10569 10568 10567 10566 10566 10565 10565 10565 10565 10565 10566 10566 10566 10566 10566 10567 10568 10569 10570 10571 10573 10575 10576 10577 10579 10580 10582 10583 10584 10585 10586
10575 10574 10573 10572 10571 10569 10568 10567 10566 10565 10564 10563 10562 10561 10560 10559 10558 10558 10557 10557 10557 10557 10557 10557 10557 10556 10557 10558 10559 10560 10562 10564 10565 10566 10567 10569 10570 10571 10573 10574 10575 10577
10570 10568 10567 10566 10564 10563 10562 10561 10561 10560 10558 10557 10556 10555 10554 10553 10552 10551 10550 10549 10549 10549 10548 10548 10548 10547 10548 10549 10550 10552 10553 10555 10556 10557 10558 10559 10560 10562 10563 10564 10565 10567
10565 10563 10562 10560 10559 10557 10556 10555 10555 10554 10552 10551 10550 10549 10548 10547 10546 10544 10543 10542 10542 10541 10540 10540 10540 10539 10540 10541 10542 10544 10545 10546 10548 10549 10550 10551 10552 10552 10553 10555 10556 10557
10560 10558 10556 10555 10553 10552 10551 10550 10550 10549 10547 10546 10545 10544 10542 10541 10540 10539 10537 10536 10535 10535 10534 10533 10532 10532 10532 10534 10535 10537 10538 10539 10540 10542 10543 10543 10544 10545 10546 10547 10548 10548
10556 10553 10551 10549 10548 10547 10546 10544 10544 10544 10543 10541 10541 10539 10538 10537 10536 10534 10532 10531 10529 10529 10528 10527 10526 10526 10527 10528 10530 10531 10532 10533 10534 10535 10536 10537 10538 10539 10539 10540 10541 10541
10551 10549 10547 10545 10543 10542 10541 10539 10539 10539 10539 10538 10537 10535 10534 10533 10532 10530 10528 10526 10525 10524 10523 10522 10522 10522 10522 10523 10525 10526 10527 10528 10529 10530 10531 10532 10533 10533 10534 10534 10534 10534
10547 10545 10543 10540 10539 10537 10536 10535 10535 10535 10535 10534 10533 10532 10531 10530 10528 10526 10524 10523 10521 10520 10519 10519 10518 10518 10519 10520 10521 10522 10523 10524 10525 10526 10526 10527 10528 10528 10528 10528 10528 10528
10543 10541 10539 10536 10534 10533 10531 10531 10531 10531 10531 10530 10530 10529 10528 10527 10525 10523 10521 10519 10518 10517 10517 10516 10516 10516 10516 10517 10518 10519 10520 10521 10521 10522 10522 10523 10523 10523 10523 10523 10523 10524
10540 10538 10535 10533 10531 10529 10528 10527 10527 10527 10527 10527 10526 10526 10525 10524 10522 10520 10518 10517 10516 10515 10515 10514 10514 10514 10514 10514 10515 10516 10517 10518 10518 10519 10519 10519 10519 10519 10520 10520 10520 10521
10538 10535 10533 10531 10528 10526 10525 10524 10524 10523 10523 10523 10523 10522 10522 10521 10519 10518 10516 10515 10514 10513 10513 10512 10512 10512 10512 10513 10513 10514 10514 10515 10515 10515 10516 10516 10516 10517 10517 10518 10518 10518
10536 10533 10530 10528 10526 10524 10522 10521 10521 10520 10520 10519 10519 10519 10519 10518 10516 10515 10514 10513 10512 10511 10511 10511 10511 10511 10511 10511 10512 10512 10512 10512 10513 10513 10513 10514 10514 10515 10515 10515 10515 10515
10533 10530 10528 10526 10523 10521 10519 10518 10517 10517 10517 10516 10516 10515 10515 10515 10514 10513 10512 10511 10510 10510 10509 10509 10509 10509 10509 10510 10510 10510 10510 10510 10511 10511 10512 10512 10512 10512 10512 10512 10512 10511
10531 10528 10526 10523 10521 10519 10517 10516 10515 10514 10514 10513 10512 10512 10512 10511 10511 10510 10509 10509 10509 10508 10508 10508 10508 10508 10508 10508 10508 10508 10508 10509 10509 10509 10510 10510 10510 10510 10510 10509 10508 10508
10530 10526 10523 10521 10518 10516 10514 10513 10512 10511 10510 10510 10509 10509 10508 10508 10508 10508 10507 10507 10507 10507 10507 10506 10506 10506 10506 10506 10507 10507 10507 10507 10507 10508 10508 10508 10507 10507 10507 10506 10505 10505
10528 10525 10521 10519 10516 10514 10512 10510 10509 10508 10508 10507 10507 10506 10506 10505 10505 10505 10505 10505 10505 10505 10505 10505 10505 10505 10505 10505 10505 10505 10505 10505 10505 10505 10505 10505 10505 10504 10504 10503 10502 10502
10527 10523 10520 10517 10514 10512 10510 10508 10507 10506 10505 10505 10504 10504 10503 10503 10503 10503 10503 10503 10503 10503 10503 10503 10503 10503 10503 10503 10503 10503 10503 10503 10503 10503 10503 10503 10502 10502 10501 10501 10500 10499
10526 10522 10519 10515 10513 10510 10508 10507 10505 10504 10503 10503 10502 10502 10502 10502 10501 10501 10501 10502 10502 10502 10502 10502 10502 10502 10502 10502 10502 10501 10502 10501 10501 10501 10501 10501 10500 10499 10499 10499 10498 10497
10525 10522 10518 10515 10512 10509 10507 10505 10504 10503 10502 10501 10501 10501 10500 10500 10500 10500 10500 10500 10500 10500 10500 10501 10501 10501 10500 10500 10500 10500 10500 10500 10500 10500 10499 10499 10498 10498 10497 10497 10496 10496
10525 10522 10518 10515 10512 10509 10506 10504 10503 10502 10501 10500 10500 10499 10499 10499 10499 10499 10498 10498 10498 10499 10499 10499 10499 10499 10499 10499 10499 10498 10498 10498 10498 10498 10498 10498 10497 10497 10496 10496 10495 10494
10524 10521 10518 10515 10512 10509 10506 10504 10502 10501 10500 10500 10499 10498 10498 10498 10498 10498 10497 10497 10497 10497 10497 10498 10498 10498 10497 10497 10497 10497 10497 10497 10497 10497 10497 10497 10496 10496 10495 10495 10494 10493
10524 10521 10519 10515 10512 10509 10507 10504 10503 10501 10500 10499 10499 10498 10498 10497 10497 10497 10496 10496 10496 10496 10496 10497 10497 10497 10496 10496 10496 10496 10496 10496 10496 10496 10496 10496 10495 10495 10494 10494 10493 10492
10523 10521 10518 10516 10513 10510 10508 10506 10504 10502 10500 10499 10499 10498 10498 10497 10497 10496 10496 10496 10495 10496 10496 10496 10496 10496 10496 10496 10496 10496 10496 10496 10496 10495 10495 10495 10495 10494 10494 10493 10492 10492
10522 10520 10518 10516 10514 10511 10509 10507 10505 10503 10501 10500 10499 10498 10498 10498 10497 10496 10496 10495 10495 10495 10495 10496 10496 10495 10495 10495 10495 10495 10495 10495 10495 10495 10494 10494 10493 10493 10493 10492 10491 10491
10520 10519 10518 10516 10514 10513 10510 10508 10506 10504 10502 10501 10500 10499 10499 10498 10497 10496 10495 10495 10495 10495 10495 10495 10495 10495 10495 10495 10495 10494 10494 10494 10494 10494 10493 10493 10492 10492 10492 10491 10490 10489